CALSPHERE 1 (900 NORAD) Tracking and Keplerian Element Data

This shows tracking and keplerian element data for the satellite.

Feedback or suggestion? Click here.




ElementValue
Catalog900
NameCALSPHERE 1
Epoch Orbit4680
Epoch Day354.19223534
Epoch Year2025
RAAN67.6319
Inclination90.2207
Eccentricity0.0027634
Argument of Perigee115.2049
Mean Anonmoly273.9809
Mean Motion13.76378101
Decay Rate5.65E-06
L11 00900U 64063C 25354.19223534 .00000565 00000+0 56794-3 0 9995
L22 00900 90.2207 67.6319 0027634 115.2049 273.9809 13.76378101 46800



Live tracking and technical data element details for CALSPHERE 1 (NORAD 900). CALSPHERE 1 can be tracked NOW for your location showing map with azimuth and elevation plus other details from your city location.







IsCatalogInMostPopularTable: catalog: 900, numindb: 344
Update: records affected: 1



GetName: 900 CALSPHERE 1

Hit Count: updated at: Thu, 16 Apr 2026 05:07:22 GMT